RH
48 16 8 4 6 10 8 6 5 5 5 5 5 5 5 5 7 3 3 3 3 3 5 6 6 4 4 5 5 5 5 7 18 28 28 21 10 11 13 8 7 7 7 8 11
38 33 12 8 4 6 10 7 5 5 5 5 5 5 5 5 6 6 4 3 4 4 4 4 5 6 6 5 5 5 5 7 6 11 18 20 10 10 11 9 7 7 8 11 13
65 43 28 10 8 3 5 8 6 5 5 5 5 5 5 4 5 8 4 4 4 4 4 4 4 4 5 6 6 5 5 6 5 5 6 6 9 13 7 7 8 10 11 12 12
79 89 63 30 11 9 3 4 7 6 6 5 5 5 5 4 5 5 7 4 4 4 4 4 4 4 4 5 6 5 6 6 6 6 7 7 7 8 8 10 11 12 13 13 14
71 57 93 35 30 12 9 4 3 5 6 6 5 5 5 5 4 5 7 10 6 4 4 4 4 4 4 4 5 4 6 6 5 6 7 8 8 9 11 13 12 12 13 14 15
79 59 55 56 23 30 14 10 4 3 4 5 6 6 5 5 4 5 6 9 10 9 5 4 4 3 4 4 4 4 5 4 6 8 7 9 10 11 13 13 11 10 12 16 16
42 86 49 92 68 22 31 17 11 5 3 4 5 6 5 5 5 5 6 7 8 10 11 9 8 7 7 6 6 5 7 7 5 8 9 8 10 11 12 10 11 13 15 15 12
94 64 88 59 93 81 29 32 20 11 6 3 4 5 5 5 5 4 6 8 10 9 8 11 14 13 11 9 9 9 8 7 9 10 9 10 10 11 13 13 14 12 14 28 32
82 77 69 90 73 96 38 30 32 20 12 7 3 3 4 4 5 4 5 7 9 9 7 11 12 12 10 12 13 12 9 11 14 15 13 14 15 16 15 12 14 29 33 33 33
18 98 89 73 84 88 96 50 30 32 20 12 8 3 2 3 4 4 4 5 7 9 8 10 12 8 10 13 9 13 17 17 18 18 17 17 15 14 16 30 38 32 32 32 36
10 100 99 98 83 86 95 95 55 37 30 14 11 8 4 3 3 4 4 5 7 7 7 11 8 6 10 13 15 16 16 16 19 18 16 13 12 13 26 31 32 32 37 28 36
71 85 99 97 96 96 98 84 88 59 46 33 23 12 11 8 5 6 6 5 6 6 8 9 5 7 12 11 11 13 15 16 17 20 18 17 15 16 17 41 43 32 31 37 36
33 38 98 96 99 98 97 68 90 98 74 42 32 27 17 16 10 10 9 8 8 8 8 7 6 10 11 13 13 13 13 15 14 22 19 21 26 33 44 57 54 48 44 43 32
6 67 98 98 97 98 94 69 80 99 94 63 33 35 28 16 11 13 12 13 10 8 10 8 8 8 9 10 13 9 14 14 17 20 22 30 23 31 39 44 50 52 46 39 26
5 17 98 98 99 96 98 96 100 100 95 63 52 42 35 29 17 15 15 16 13 11 11 6 7 9 7 8 14 10 17 16 16 19 23 28 34 27 47 53 56 56 47 37 26
3 8 80 98 95 97 98 100 100 100 96 61 55 47 34 33 27 27 20 19 19 20 12 10 11 15 12 14 16 21 18 18 21 24 32 32 36 40 53 63 59 54 44 38 28
5 9 49 98 90 98 99 99 99 100 90 55 57 54 41 36 36 35 29 23 20 22 25 15 12 13 14 15 18 19 19 21 25 32 35 30 39 40 55 56 55 45 39 34 29
16 5 31 97 98 98 99 100 98 97 82 66 72 58 64 43 36 38 35 35 29 26 24 21 19 17 15 18 18 24 26 27 28 28 28 32 42 47 62 52 52 46 43 37 24
52 8 18 47 95 99 98 99 99 94 87 88 87 74 63 63 51 40 35 38 48 32 30 30 31 28 28 27 28 27 38 55 32 30 39 44 48 58 50 49 45 54 57 39 20
73 17 8 24 62 95 100 96 100 90 91 100 100 77 72 66 68 51 42 49 30 39 47 38 26 27 28 25 23 22 30 35 34 37 44 49 63 73 78 66 65 68 62 40 21
88 34 11 10 12 79 100 96 99 90 95 100 93 89 73 90 87 76 50 41 28 24 28 24 27 36 26 29 26 25 24 25 30 43 59 74 72 70 81 78 67 70 60 38 27
80 28 26 17 13 38 100 97 96 100 100 100 97 99 94 100 100 92 81 71 62 37 41 37 39 37 33 35 37 44 51 48 41 43 55 70 59 69 78 72 77 71 52 35 34
55 28 41 34 17 93 98 99 99 100 100 93 95 96 90 100 100 95 84 89 100 86 57 80 87 84 57 57 49 54 58 59 57 57 56 70 48 78 92 94 78 62 49 40 43
62 48 45 51 24 14 100 95 96 99 99 97 94 100 99 100 99 88 83 87 92 83 87 100 96 88 62 52 79 69 59 60 68 74 67 53 68 72 83 89 76 60 48 43 38
51 52 51 37 33 17 80 98 91 100 98 98 100 99 93 98 96 97 89 85 94 80 94 97 81 77 72 87 100 97 95 85 71 62 79 67 82 92 99 92 65 53 44 41 45
46 39 56 52 41 37 78 66 66 94 96 96 94 86 90 88 96 88 94 90 80 92 90 97 73 87 82 89 98 87 73 76 81 71 62 62 68 98 84 73 73 65 53 50 42
66 61 90 88 53 52 38 64 95 96 93 100 80 94 94 78 99 99 97 100 100 98 96 98 99 98 71 87 100 97 42 61 62 59 58 54 69 88 81 70 60 63 63 63 67
Wind_Speed
62 61 60 59 59 57 56 55 52 49 46 43 40 37 34 31 30 30 32 30 29 26 26 26 25 25 25 25 25 25 20 20 29 27 21 26 22 18 23 26 24 25 25 21 22
64 64 63 61 61 60 59 57 55 53 50 47 44 41 38 35 33 32 32 33 35 32 29 28 27 26 26 27 27 26 25 29 31 33 30 29 27 18 24 27 26 24 21 22 26
72 68 64 64 63 62 61 60 59 56 54 51 49 46 43 39 36 34 33 34 36 36 34 33 32 31 30 31 30 30 29 33 31 32 31 26 29 28 25 25 24 26 22 23 25
76 79 72 67 65 64 61 61 62 59 57 54 52 50 48 44 41 37 33 34 34 35 34 34 34 34 34 33 33 34 32 33 31 28 30 28 27 26 27 26 26 25 26 27 28
81 79 79 71 67 66 64 62 62 63 60 58 55 54 52 49 43 39 35 34 34 35 35 33 33 34 34 35 37 34 35 37 33 27 30 31 30 29 26 29 28 27 28 30 30
85 81 80 77 71 68 65 65 63 64 63 61 60 57 56 52 48 43 39 37 36 34 35 36 37 34 33 36 35 31 34 32 27 30 31 32 31 31 29 33 31 31 30 32 33
85 88 80 84 77 70 68 66 65 64 65 64 63 62 60 51 54 47 42 40 38 36 35 35 33 33 35 35 34 33 32 34 30 30 33 34 31 31 36 34 31 33 34 35 35
77 88 90 83 88 79 73 69 67 65 66 65 65 66 64 54 58 52 46 44 40 41 40 35 36 37 34 36 33 33 34 33 26 34 34 34 31 36 35 36 33 33 35 35 35
86 82 89 93 85 91 79 73 70 69 69 68 66 67 65 58 61 53 50 49 46 45 44 40 41 38 38 37 36 35 34 32 30 33 37 37 35 35 34 37 34 34 36 34 42
90 81 88 92 92 90 91 80 76 73 71 71 70 69 67 62 61 56 53 51 49 49 48 45 44 43 43 40 36 34 34 33 34 37 39 41 39 35 30 33 38 41 46 40 40
96 88 78 93 100 89 92 92 83 79 77 75 71 69 69 65 63 58 56 54 54 53 52 47 48 46 40 36 38 38 39 39 36 39 43 45 40 36 29 29 37 46 48 45 45
101 98 84 65 99 93 89 92 83 77 75 71 72 71 70 70 64 61 60 59 58 55 50 51 50 45 41 43 43 43 43 43 37 38 41 41 42 41 38 37 40 48 49 46 41
107 103 97 73 87 89 95 91 87 88 87 82 75 72 68 69 63 60 60 57 57 56 54 54 48 46 48 46 47 47 45 42 40 37 42 43 41 42 41 45 45 49 43 40 35
109 110 98 76 83 88 88 91 89 87 96 90 84 79 73 73 72 65 64 64 63 61 58 57 54 54 53 50 49 48 45 43 42 45 46 42 50 47 48 49 51 49 39 35 28
108 117 98 80 74 78 74 87 92 90 96 100 94 87 78 76 74 67 65 65 62 61 61 56 53 52 52 49 49 50 47 47 46 47 46 45 50 51 47 52 50 43 36 31 23
98 113 109 93 83 70 57 72 80 81 92 98 96 91 86 80 77 70 70 66 62 62 61 56 57 54 55 54 51 49 52 49 46 45 50 51 50 51 51 43 43 41 38 29 23
85 115 120 119 91 59 45 48 53 66 92 100 99 94 90 84 83 76 71 74 71 71 71 65 62 59 57 58 53 53 52 49 48 51 56 49 55 51 54 41 38 38 37 27 22
74 104 118 120 110 105 88 58 67 62 59 81 88 95 96 91 82 77 76 75 69 66 65 64 65 62 61 56 53 50 47 47 53 52 50 53 64 58 51 41 32 35 31 26 27
61 91 111 115 113 108 107 59 64 60 49 56 75 84 87 95 87 85 83 78 73 66 66 68 67 58 59 54 55 52 55 52 54 54 62 63 61 54 51 43 40 39 32 30 27
52 78 108 102 92 102 80 91 61 60 43 48 59 75 77 86 94 88 87 85 79 76 73 71 68 64 60 63 61 61 58 58 60 63 61 61 63 60 52 47 45 41 36 34 28
49 69 85 89 74 66 80 81 68 50 52 46 48 62 69 64 71 82 87 77 77 71 70 69 69 67 64 69 65 60 60 63 63 65 68 63 61 50 50 48 42 38 39 38 30
52 66 66 68 68 73 66 78 79 60 52 51 45 51 58 61 55 64 66 71 78 76 73 70 68 70 69 63 62 62 64 66 69 69 67 61 51 46 47 45 38 38 42 38 30
44 53 56 61 65 68 68 81 67 77 71 61 52 38 53 44 59 62 60 60 64 74 77 74 80 77 74 72 78 79 73 70 72 71 72 69 53 41 47 44 39 39 39 38 38
50 49 51 58 63 68 69 69 47 52 70 72 64 56 46 42 39 48 60 57 60 64 64 61 68 73 76 66 71 69 69 72 71 67 63 54 53 45 42 42 41 42 41 41 38
49 50 46 52 57 62 71 76 71 60 56 60 60 62 44 44 43 38 41 45 45 56 60 56 56 59 53 55 57 62 62 58 57 51 50 42 42 40 40 40 39 40 43 40 37
51 45 43 40 44 56 59 64 72 68 72 71 65 56 57 39 37 35 34 36 48 51 57 47 52 50 53 53 53 57 51 50 47 48 45 43 41 35 34 39 39 38 37 38 41
46 47 44 42 41 48 60 67 67 76 74 56 65 59 68 46 35 39 35 38 40 47 48 52 50 53 54 51 50 53 43 50 49 49 47 44 37 32 38 39 39 40 41 38 37
Wind_Direction
240 241 239 238 237 233 234 234 234 231 231 234 234 235 236 237 234 230 224 219 221 227 228 229 229 226 226 227 225 226 222 203 218 225 222 241 264 261 266 265 267 270 278 281 284
237 239 239 237 238 235 233 233 234 234 231 232 234 234 234 236 236 231 225 220 223 225 229 230 230 231 232 231 230 229 226 216 224 230 237 247 266 265 256 265 271 272 281 285 282
232 237 239 237 236 237 234 233 233 234 233 231 232 233 234 234 234 233 226 223 223 226 226 228 231 231 229 231 233 235 231 231 237 242 252 256 266 267 272 271 273 280 279 278 279
236 230 236 239 236 236 235 233 234 233 234 231 231 233 233 232 234 231 229 228 226 228 227 228 229 232 233 234 235 237 237 244 251 253 262 265 262 262 267 269 271 276 282 283 285
232 234 234 236 236 235 235 235 233 233 232 234 231 232 233 233 233 231 230 230 228 229 230 230 232 232 234 236 236 239 239 244 250 250 252 258 262 263 267 269 273 276 279 281 284
230 231 233 225 235 235 235 234 234 233 232 232 233 230 232 232 232 230 227 229 229 228 229 230 232 238 238 240 244 247 247 253 252 249 247 255 258 263 265 265 272 274 275 278 282
233 229 229 225 233 233 234 234 233 233 233 232 232 232 230 229 232 232 231 228 230 230 230 231 233 233 236 240 242 246 238 246 250 249 251 252 255 262 262 264 269 273 276 279 282
230 232 227 229 227 232 234 233 233 232 234 234 232 233 233 228 232 230 231 230 229 231 232 232 231 232 234 239 240 241 243 247 247 249 251 254 255 254 262 271 272 277 278 283 286
221 229 231 227 230 230 230 232 232 231 231 232 233 234 233 230 233 230 227 233 228 231 232 229 233 235 239 240 240 242 248 247 243 251 253 253 254 262 264 271 275 278 280 287 302
219 221 231 230 227 231 227 225 231 231 231 230 231 233 232 231 234 233 230 232 233 232 234 231 232 235 236 238 246 248 248 248 245 247 252 255 253 259 273 280 286 286 288 293 300
217 215 223 223 223 225 229 225 222 227 230 230 232 234 235 231 230 231 232 231 234 234 235 235 236 239 241 242 243 243 244 245 248 252 257 267 273 263 263 272 281 285 290 295 303
211 211 217 224 221 221 227 230 228 230 233 235 234 232 235 233 229 231 232 233 235 238 236 237 242 242 241 240 242 243 244 248 247 256 263 263 265 270 270 277 272 276 282 293 289
212 210 212 222 207 219 221 229 229 230 230 229 230 231 231 237 233 232 234 236 237 237 237 238 242 240 239 240 242 243 247 248 253 250 255 262 268 271 274 282 280 277 286 285 286
213 211 213 212 204 214 220 230 225 229 227 225 226 226 226 231 228 227 228 230 234 235 236 237 235 236 239 240 243 247 248 247 246 245 247 254 265 261 273 276 280 284 286 284 286
213 214 207 204 211 202 212 222 223 229 231 228 222 224 224 228 233 230 229 229 230 236 237 241 240 243 245 246 245 248 245 245 246 247 254 256 258 271 276 281 284 283 281 283 287
215 212 210 204 203 196 193 211 218 225 230 229 227 221 223 223 226 226 228 229 229 233 236 237 237 234 241 241 239 244 247 245 247 252 257 259 262 274 277 285 275 276 280 286 282
218 212 210 216 203 196 187 192 215 229 229 229 232 226 226 225 224 229 225 227 225 228 233 233 234 237 235 239 239 240 242 246 250 254 265 268 268 274 281 275 271 279 284 288 280
223 217 215 216 204 211 213 227 223 227 226 223 227 232 227 223 224 231 232 227 227 230 236 236 237 236 238 239 246 247 251 256 259 261 265 260 266 276 281 273 276 281 285 286 285
228 220 219 219 220 215 221 202 225 225 217 222 225 228 228 224 226 229 230 231 231 232 235 240 241 237 244 246 248 251 252 261 259 261 262 263 270 276 285 279 284 287 280 283 281
230 225 217 222 226 230 231 217 223 220 218 221 225 227 229 228 227 226 228 232 232 231 234 240 243 244 245 248 247 248 251 250 250 252 256 270 278 282 276 275 279 281 280 279 276
231 227 219 223 222 221 218 236 215 211 219 211 222 221 226 230 228 232 232 233 233 234 233 234 238 242 244 244 246 246 249 251 252 257 264 271 276 273 269 270 274 273 275 275 274
229 228 223 222 210 211 219 231 218 203 212 214 213 217 220 230 225 228 225 229 238 236 234 237 239 242 246 250 250 251 252 256 256 258 264 272 270 270 270 270 270 265 266 272 272
231 232 227 224 213 204 224 227 234 219 212 218 217 217 218 226 230 228 225 224 231 236 236 237 238 235 240 242 242 248 248 251 257 259 266 266 264 271 269 269 270 268 269 271 272
226 229 225 225 221 212 208 211 213 207 221 226 227 224 216 216 223 228 229 227 228 234 238 236 237 239 240 251 255 256 258 261 260 260 261 263 268 269 265 259 260 264 266 266 266
228 231 232 231 224 216 207 209 205 202 202 198 214 215 212 208 210 225 226 228 221 230 231 235 236 237 236 236 241 249 255 254 256 262 260 263 265 263 258 259 262 261 258 256 255
229 233 236 237 226 217 208 214 216 221 226 215 212 214 215 205 204 212 217 218 228 222 225 223 236 232 231 235 236 240 241 247 248 252 257 256 255 247 249 251 250 252 256 263 267
225 231 230 231 230 221 215 209 206 215 223 213 221 216 222 209 214 207 213 226 223 221 223 225 223 235 235 230 234 239 242 247 251 252 254 256 260 246 240 242 249 251 254 259 273